| time (UTC) | temp C | wind direction | speed KPH | gust KPH | rain 1hr cm | rain 24hr cm | rain mn cm | humidity % | barometer mb |
| 20260510233108 | 27 | 202 | 0.0 | 11.3 | 0.00 | 0.00 | 0.00 | 35 | 1015.6 |
| 20260510231609 | 27 | 0 | 1.6 | 14.5 | 0.00 | 0.00 | 0.00 | 34 | 1015.5 |
| 20260510230110 | 27 | 0 | 0.0 | 16.1 | 0.00 | 0.00 | 0.00 | 33 | 1015.3 |
| 20260510224608 | 28 | 159 | 0.0 | 14.5 | 0.00 | 0.00 | 0.00 | 31 | 1015.3 |
| 20260510223139 | 28 | 153 | 1.6 | 8.0 | 0.00 | 0.00 | 0.00 | 31 | 1015.3 |
| 20260510221557 | 28 | 0 | 0.0 | 4.8 | 0.00 | 0.00 | 0.00 | 30 | 1015.2 |
| 20260510220108 | 28 | 0 | 0.0 | 8.0 | 0.00 | 0.00 | 0.00 | 30 | 1015.1 |
| 20260510214556 | 28 | 0 | 1.6 | 14.5 | 0.00 | 0.00 | 0.00 | 28 | 1015.2 |
| 20260510213118 | 28 | 0 | 1.6 | 12.9 | 0.00 | 0.00 | 0.00 | 29 | 1015.1 |
| 20260510211601 | 28 | 0 | 0.0 | 12.9 | 0.00 | 0.00 | 0.00 | 29 | 1015.1 |
| 20260510210057 | 28 | 0 | 1.6 | 12.9 | 0.00 | 0.00 | 0.00 | 27 | 1015.1 |
| 20260510204601 | 28 | 160 | 1.6 | 9.7 | 0.00 | 0.00 | 0.00 | 27 | 1015.3 |
| 20260510203055 | 28 | 215 | 1.6 | 12.9 | 0.00 | 0.00 | 0.00 | 26 | 1015.3 |
| 20260510201557 | 28 | 0 | 3.2 | 11.3 | 0.00 | 0.00 | 0.00 | 27 | 1015.3 |
| 20260510200100 | 28 | 0 | 0.0 | 6.4 | 0.00 | 0.00 | 0.00 | 26 | 1015.5 |
| 20260510194558 | 28 | 0 | 0.0 | 8.0 | 0.00 | 0.00 | 0.00 | 27 | 1015.6 |
| 20260510193059 | 28 | 0 | 0.0 | 6.4 | 0.00 | 0.00 | 0.00 | 28 | 1015.6 |
| 20260510191557 | 27 | 0 | 1.6 | 14.5 | 0.00 | 0.00 | 0.00 | 29 | 1015.9 |
| 20260510190059 | 28 | 0 | 0.0 | 4.8 | 0.00 | 0.00 | 0.00 | 28 | 1016.0 |
| 20260510184559 | 27 | 0 | 0.0 | 4.8 | 0.00 | 0.00 | 0.00 | 31 | 1015.9 |
| 20260510183102 | 27 | 0 | 1.6 | 19.3 | 0.00 | 0.00 | 0.00 | 30 | 1016.1 |
| 20260510181629 | 26 | 0 | 1.6 | 11.3 | 0.00 | 0.00 | 0.00 | 30 | 1016.0 |
| 20260510180107 | 27 | 296 | 1.6 | 9.7 | 0.00 | 0.00 | 0.00 | 28 | 1016.3 |
| 20260510174600 | 27 | 0 | 0.0 | 8.0 | 0.00 | 0.00 | 0.00 | 28 | 1016.4 |
| 20260510173058 | 26 | 0 | 0.0 | 12.9 | 0.00 | 0.00 | 0.00 | 27 | 1016.5 |
| 20260510171556 | 27 | 149 | 3.2 | 9.7 | 0.00 | 0.00 | 0.00 | 29 | 1016.7 |
| 20260510170055 | 26 | 153 | 0.0 | 8.0 | 0.00 | 0.00 | 0.00 | 31 | 1016.8 |
| 20260510164556 | 26 | 0 | 0.0 | 9.7 | 0.00 | 0.00 | 0.00 | 31 | 1016.8 |
| 20260510163101 | 26 | 0 | 0.0 | 1.6 | 0.00 | 0.00 | 0.00 | 32 | 1016.7 |
| 20260510161554 | 25 | 0 | 0.0 | 9.7 | 0.00 | 0.00 | 0.00 | 30 | 1017.0 |
| 20260510154602 | 24 | 0 | 0.0 | 4.8 | 0.00 | 0.00 | 0.00 | 36 | 1017.0 |
| 20260510153108 | 24 | 0 | 0.0 | 6.4 | 0.00 | 0.00 | 0.00 | 36 | 1017.0 |
| 20260510151557 | 24 | 0 | 0.0 | 4.8 | 0.00 | 0.00 | 0.00 | 37 | 1017.1 |
| 20260510150056 | 23 | 263 | 0.0 | 4.8 | 0.00 | 0.00 | 0.00 | 39 | 1017.3 |
| 20260510144556 | 22 | 81 | 0.0 | 1.6 | 0.00 | 0.00 | 0.00 | 43 | 1017.2 |
| 20260510143112 | 22 | 0 | 0.0 | 4.8 | 0.00 | 0.00 | 0.00 | 45 | 1017.3 |
| 20260510141556 | 21 | 0 | 0.0 | 3.2 | 0.00 | 0.00 | 0.00 | 48 | 1017.3 |
| 20260510140100 | 21 | 0 | 0.0 | 1.6 | 0.00 | 0.00 | 0.00 | 51 | 1017.2 |
| 20260510134605 | 21 | 0 | 0.0 | 0.0 | 0.00 | 0.00 | 0.00 | 59 | 1017.3 |
| 20260510133057 | 20 | 0 | 0.0 | 0.0 | 0.00 | 0.00 | 0.00 | 62 | 1017.1 |
| 20260510131554 | 19 | 0 | 0.0 | 0.0 | 0.00 | 0.00 | 0.00 | 64 | 1017.2 |
| 20260510130057 | 18 | 0 | 0.0 | 0.0 | 0.00 | 0.00 | 0.00 | 66 | 1017.0 |
| 20260510124557 | 18 | 0 | 0.0 | 0.0 | 0.00 | 0.00 | 0.00 | 68 | 1016.7 |
| 20260510123056 | 17 | 0 | 0.0 | 0.0 | 0.00 | 0.00 | 0.00 | 70 | 1016.7 |
| 20260510121558 | 16 | 0 | 0.0 | 0.0 | 0.00 | 0.00 | 0.00 | 74 | 1016.5 |
| 20260510114558 | 15 | 0 | 0.0 | 3.2 | 0.00 | 0.00 | 0.00 | 78 | 1016.2 |
| 20260510113058 | 15 | 0 | 0.0 | 3.2 | 0.00 | 0.00 | 0.00 | 79 | 1015.7 |
| 20260510111555 | 14 | 0 | 0.0 | 0.0 | 0.00 | 0.00 | 0.00 | 81 | 1015.5 |
| 20260510110056 | 13 | 0 | 0.0 | 0.0 | 0.00 | 0.00 | 0.00 | 86 | 1015.3 |
| 20260510104556 | 12 | 0 | 0.0 | 0.0 | 0.00 | 0.00 | 0.00 | 92 | 1014.9 |
| 20260510103056 | 11 | 0 | 0.0 | 3.2 | 0.00 | 0.00 | 0.00 | 92 | 1014.7 |
| 20260510101600 | 11 | 0 | 0.0 | 0.0 | 0.00 | 0.00 | 0.00 | 92 | 1014.4 |
| 20260510100130 | 12 | 0 | 0.0 | 0.0 | 0.00 | 0.00 | 0.00 | 91 | 1014.1 |
| 20260510094558 | 13 | 0 | 0.0 | 0.0 | 0.00 | 0.00 | 0.00 | 87 | 1014.0 |
| 20260510093103 | 13 | 0 | 0.0 | 0.0 | 0.00 | 0.00 | 0.00 | 86 | 1013.9 |
| 20260510091559 | 13 | 0 | 0.0 | 0.0 | 0.00 | 0.00 | 0.00 | 87 | 1013.9 |
| 20260510090056 | 13 | 0 | 0.0 | 0.0 | 0.00 | 0.00 | 0.00 | 92 | 1013.8 |
| 20260510084556 | 13 | 0 | 0.0 | 0.0 | 0.00 | 0.00 | 0.00 | 91 | 1013.8 |
| 20260510083102 | 13 | 0 | 0.0 | 0.0 | 0.00 | 0.00 | 0.00 | 92 | 1013.6 |
| 20260510081557 | 13 | 0 | 0.0 | 0.0 | 0.00 | 0.00 | 0.00 | 93 | 1013.5 |
| 20260510074557 | 14 | 0 | 0.0 | 0.0 | 0.00 | 0.00 | 0.00 | 92 | 1013.1 |
| 20260510073056 | 14 | 0 | 0.0 | 0.0 | 0.00 | 0.00 | 0.00 | 93 | 1013.0 |
| 20260510071600 | 14 | 0 | 0.0 | 0.0 | 0.00 | 0.00 | 0.00 | 92 | 1012.9 |
| 20260510070101 | 14 | 0 | 0.0 | 0.0 | 0.00 | 0.00 | 0.00 | 92 | 1012.8 |
| 20260510064558 | 15 | 0 | 0.0 | 0.0 | 0.00 | 0.00 | 0.00 | 92 | 1012.9 |
| 20260510063055 | 15 | 0 | 0.0 | 0.0 | 0.00 | 0.00 | 0.00 | 91 | 1012.9 |
| 20260510061558 | 15 | 0 | 0.0 | 0.0 | 0.00 | 0.00 | 0.00 | 91 | 1012.9 |
| 20260510060055 | 15 | 0 | 0.0 | 0.0 | 0.00 | 0.00 | 0.00 | 91 | 1013.2 |
| 20260510054556 | 16 | 0 | 0.0 | 0.0 | 0.00 | 0.00 | 0.00 | 90 | 1013.3 |
| 20260510053057 | 16 | 0 | 0.0 | 0.0 | 0.00 | 0.00 | 0.00 | 88 | 1013.2 |
| 20260510051558 | 16 | 0 | 0.0 | 0.0 | 0.00 | 0.00 | 0.00 | 89 | 1013.2 |
| 20260510050055 | 16 | 0 | 0.0 | 0.0 | 0.00 | 0.00 | 0.00 | 91 | 1013.4 |
| 20260510044559 | 16 | 0 | 0.0 | 0.0 | 0.00 | 0.00 | 0.00 | 90 | 1013.5 |
| 20260510043057 | 16 | 0 | 0.0 | 0.0 | 0.00 | 0.00 | 0.00 | 90 | 1013.5 |
| 20260510041558 | 16 | 0 | 0.0 | 0.0 | 0.00 | 0.00 | 0.00 | 89 | 1013.5 |
| 20260510040100 | 17 | 0 | 0.0 | 0.0 | 0.00 | 0.00 | 0.00 | 87 | 1013.5 |
| 20260510034604 | 17 | 0 | 0.0 | 0.0 | 0.00 | 0.00 | 0.00 | 86 | 1013.5 |
| 20260510033114 | 17 | 0 | 0.0 | 0.0 | 0.00 | 0.00 | 0.00 | 86 | 1013.5 |
| 20260510031559 | 17 | 0 | 0.0 | 0.0 | 0.00 | 0.00 | 0.00 | 86 | 1013.6 |
| 20260510030057 | 17 | 0 | 0.0 | 0.0 | 0.00 | 0.00 | 0.00 | 85 | 1013.5 |
| 20260510024602 | 17 | 0 | 0.0 | 0.0 | 0.00 | 0.00 | 0.00 | 85 | 1013.5 |
| 20260510023058 | 18 | 0 | 0.0 | 0.0 | 0.00 | 0.00 | 0.00 | 83 | 1013.4 |
| 20260510021603 | 18 | 0 | 0.0 | 0.0 | 0.00 | 0.00 | 0.00 | 82 | 1013.3 |
| 20260510020057 | 18 | 0 | 0.0 | 0.0 | 0.00 | 0.00 | 0.00 | 81 | 1013.0 |
| 20260510014557 | 18 | 200 | 0.0 | 0.0 | 0.00 | 0.00 | 0.00 | 80 | 1012.8 |
| 20260510013056 | 19 | 260 | 0.0 | 4.8 | 0.00 | 0.00 | 0.00 | 80 | 1012.7 |
| 20260510011558 | 19 | 0 | 0.0 | 0.0 | 0.00 | 0.00 | 0.00 | 79 | 1012.5 |
| 20260510010055 | 20 | 0 | 0.0 | 0.0 | 0.00 | 0.00 | 0.00 | 78 | 1012.3 |
| 20260510004559 | 20 | 0 | 0.0 | 1.6 | 0.00 | 0.00 | 0.00 | 77 | 1012.0 |
| 20260510003111 | 20 | 0 | 0.0 | 0.0 | 0.00 | 0.00 | 0.00 | 76 | 1011.7 |
| 20260510001601 | 20 | 0 | 0.0 | 0.0 | 0.00 | 0.00 | 0.00 | 75 | 1011.5 |
| 20260510000105 | 21 | 0 | 0.0 | 0.0 | 0.00 | 0.00 | 0.00 | 74 | 1011.4 |
| 20260509234612 | 21 | 0 | 0.0 | 3.2 | 0.00 | 0.00 | 0.00 | 73 | 1011.1 |